sat.trackr.live / text

‹ back to catalog

STARLINK-3620

NORAD 51775 · 2022-017H

PAYLOAD ACTIVE UNKNOWN

§ Identity

Operator
Country
US
Launch date
2022-02-25
Launch site
AFWTR
Launch vehicle
Mass (kg)
RCS (m²)

Purposes: comms

External: N2YO · Heavens-Above · Gunter

§ Orbital elements

Epoch: 2026-09-20T04:25:03.184896Z

Period
90.72 min
Inclination
53.2130°
Eccentricity
0.0004338
Mean motion
15.87220615 rev/d
Perigee alt
307.2 km
Apogee alt
313.0 km
Semi-major
6,688.2 km
B*
4.2115e-4
RAAN
128.6831°
Arg perigee
139.2225°
Mean anomaly
220.9126°
Rev number
25,277

§ Raw data

STARLINK-36201 51775U 22017H   26263.18406464  .00113209  00000+0  42115-3 0  99902 51775  53.2130 128.6831 0004338 139.2225 220.9126 15.87220615252774

JSON: /api/v1/satellites/51775 · /tle

For live sub-satellite position, see the globe view (requires WebGL).

§ Visibility from observer

Set your observer location to see the next 7 days of passes ≥ 10°. The values pass through the URL so the page stays shareable.

No JS? Fill the form by hand. The geolocation button needs JavaScript.